Weather History for Brookings, OR

Change the Weather History Date:

Saturday, January 12, 2013

  Actual Average Record
Temperature  
Mean Temperature 38 °F -  
Max Temperature 45 °F 55 °F 73 °F (2009)
Min Temperature 32 °F 42 °F 30 °F (1963)
Degree Days  
Heating Degree Days 26    
Moisture  
Dew Point 27 °F    
Average Humidity 65    
Maximum Humidity 100    
Minimum Humidity 31    
Precipitation  
Precipitation 0.00 in - - ()
Sea Level Pressure  
Sea Level Pressure 30.27 in    
Wind  
Wind Speed 3 mph (NE)    
Max Wind Speed 8 mph    
Max Gust Speed -    
Visibility 10 miles    
Events      
Averages and records for this station are not official NWS values.
T = Trace of Precipitation, MM = Missing Value Source: NWS Daily Summary

Daily Weather History Graph

Daily Weather History Graph

Search for Another Location

Airport:

Trip Planner

Search our weather history database for the weather conditions in past years. The results will help you decide how hot, cold, wet, or windy it might be!

Date:

Astronomy

Jan. 12, 2013 Rise Set
Actual Time 7:43 AM PST 5:07 PM PST
Civil Twilight 7:12 AM PST 5:38 PM PST
Nautical Twilight 6:38 AM PST 6:13 PM PST
Astronomical Twilight 6:04 AM PST 6:46 PM PST
Moon 8:05 AM PST (1/12) 6:45 PM PST (1/12)
Length of Visible Light 10h 25m
Length of Day
9h 23m
New Moon, 2% of the Moon is Illuminated
Jan 12
New Moon
Jan 18
First Quarter
Jan 26
Full
Feb 3
Last Quarter
Feb 9
New

Hourly Weather History & Observations

Time (PST) Temp. Windchill Dew Point Humidity Pressure Visibility Wind Dir Wind Speed Gust Speed Precip Events Conditions
12:56 AM 34.0 °F - 34.0 °F 100% 30.29 in 10.0 mi Calm Calm - N/A   Overcast
1:56 AM 34.9 °F 32.0 °F 34.0 °F 97% 30.28 in 10.0 mi East 3.5 mph - N/A   Overcast
2:56 AM 37.9 °F 35.5 °F 27.1 °F 65% 30.28 in 10.0 mi Variable 3.5 mph - N/A   Overcast
3:56 AM 36.0 °F 32.1 °F 30.0 °F 79% 30.29 in 10.0 mi NNW 4.6 mph - N/A   Overcast
4:56 AM 36.9 °F 33.1 °F 29.1 °F 74% 30.27 in 10.0 mi NE 4.6 mph - N/A   Overcast
5:56 AM 36.9 °F 34.3 °F 30.0 °F 76% 30.27 in 10.0 mi Variable 3.5 mph - N/A   Mostly Cloudy
6:56 AM 34.9 °F 32.0 °F 34.9 °F 100% 30.28 in 10.0 mi Variable 3.5 mph - N/A   Overcast
7:56 AM 34.0 °F - 34.0 °F 100% 30.29 in 10.0 mi Calm Calm - N/A   Overcast
8:56 AM 36.9 °F 32.2 °F 30.0 °F 76% 30.29 in 10.0 mi Variable 5.8 mph - N/A   Mostly Cloudy
9:56 AM 39.9 °F - 31.1 °F 71% 30.29 in 10.0 mi Calm Calm - N/A   Scattered Clouds
10:56 AM 41.9 °F - 24.1 °F 49% 30.29 in 10.0 mi Calm Calm - N/A   Mostly Cloudy
11:56 AM 43.9 °F - 24.1 °F 46% 30.27 in 10.0 mi Calm Calm - N/A   Overcast
12:56 PM 43.9 °F 42.3 °F 29.1 °F 56% 30.25 in 10.0 mi Variable 3.5 mph - N/A   Overcast
1:56 PM 43.9 °F 42.3 °F 32.0 °F 63% 30.25 in 10.0 mi East 3.5 mph - N/A   Mostly Cloudy
2:56 PM 43.9 °F 41.3 °F 30.0 °F 58% 30.25 in 10.0 mi Variable 4.6 mph - N/A   Scattered Clouds
3:56 PM 45.0 °F - 28.0 °F 52% 30.25 in 10.0 mi Calm Calm - N/A   Mostly Cloudy
4:56 PM 41.9 °F - 28.0 °F 58% 30.25 in 10.0 mi Calm Calm - N/A   Clear
5:56 PM 39.9 °F 35.8 °F 20.1 °F 45% 30.25 in 10.0 mi NNE 5.8 mph - N/A   Clear
6:56 PM 41.0 °F 36.4 °F 19.0 °F 41% 30.26 in 10.0 mi Variable 6.9 mph - N/A   Clear
7:56 PM 39.9 °F 34.5 °F 18.1 °F 42% 30.27 in 10.0 mi NNE 8.1 mph - N/A   Clear
8:56 PM 41.0 °F 38.0 °F 12.0 °F 31% 30.26 in 10.0 mi Variable 4.6 mph - N/A   Clear
9:56 PM 32.9 °F - 25.2 °F 73% 30.28 in 10.0 mi Calm Calm - N/A   Clear
10:56 PM 32.0 °F 28.7 °F 24.1 °F 73% 30.29 in 10.0 mi ESE 3.5 mph - N/A   Clear
11:56 PM 36.9 °F 31.4 °F 16.2 °F 43% 30.29 in 10.0 mi Variable 6.9 mph - N/A   Clear